Window Rock, AZ

7:02 AM MDT on May 28, 2017 (GMT -0600)
Window Rock

Weather History for KRQE - June, 2013

Change the Weather History Date:

Sunday, June 2, 2013

  Actual Average Record
Temperature  
Mean Temperature 60 °F -  
Max Temperature 84 °F 76 °F 89 °F (2014)
Min Temperature 37 °F 42 °F 27 °F (1951)
Degree Days  
Heating Degree Days 4    
Growing Degree Days 10 (Base 50)    
Moisture  
Dew Point 16 °F    
Average Humidity 18    
Maximum Humidity 38    
Minimum Humidity 8    
Precipitation  
Precipitation 0.00 in - - ()
Sea Level Pressure  
Sea Level Pressure 29.81 in    
Wind  
Wind Speed 3 mph (SW)    
Max Wind Speed 21 mph    
Max Gust Speed 28 mph    
Visibility 10 miles    
Events      
Averages and records for this station are not official NWS values.
T = Trace of Precipitation, MM = Missing Value Source: NWS Daily Summary

Daily Weather History Graph

Daily Weather History Graph

Search for Another Location

Airport or City:

Trip Planner

Search our weather history database for the weather conditions in past years. The results will help you decide how hot, cold, wet, or windy it might be!

Date:

Astronomy

Jun. 02, 2013 Rise Set
Actual Time 6:01 AM MDT 8:27 PM MDT
Civil Twilight 5:31 AM MDT 8:57 PM MDT
Nautical Twilight 4:55 AM MDT 9:33 PM MDT
Astronomical Twilight 4:15 AM MDT 10:13 PM MDT
Moon 2:19 AM MDT (6/2) 3:10 PM MDT (6/2)
Length of Visible Light 15h 25m
Length of Day
14h 26m
Waning Crescent, 30% of the Moon is Illuminated
Jun 2
Waning Crescent
Jun 8
New
Jun 16
First Quarter
Jun 23
Full
Jun 29
Last Quarter

Hourly Weather History & Observations

Time (MDT) Temp. Dew Point Humidity Pressure Visibility Wind Dir Wind Speed Gust Speed Precip Events Conditions
12:53 AM 46.9 °F 9.0 °F 21% 29.91 in 10.0 mi Calm Calm - N/A   Clear
1:53 AM 48.0 °F 8.1 °F 20% 29.89 in 10.0 mi Calm Calm - N/A   Clear
2:53 AM 41.0 °F 10.9 °F 29% 29.90 in 10.0 mi Calm Calm - N/A   Clear
3:53 AM 42.1 °F 10.9 °F 28% 29.89 in 10.0 mi Calm Calm - N/A   Clear
4:53 AM 37.9 °F 12.0 °F 35% 29.91 in 10.0 mi Calm Calm - N/A   Clear
5:53 AM 41.0 °F 10.9 °F 29% 29.88 in 10.0 mi Calm Calm - N/A   Clear
6:53 AM 39.0 °F 15.1 °F 38% 29.91 in 10.0 mi Calm Calm - N/A   Clear
7:53 AM 48.0 °F 15.1 °F 27% 29.90 in 10.0 mi Calm Calm - N/A   Clear
8:53 AM 59.0 °F 15.1 °F 18% 29.89 in 10.0 mi Calm Calm - N/A   Clear
9:53 AM 66.9 °F 16.0 °F 14% 29.88 in 10.0 mi West 3.5 mph - N/A   Clear
10:53 AM 75.0 °F 15.1 °F 10% 29.86 in 10.0 mi SSW 8.1 mph - N/A   Clear
11:53 AM 79.0 °F 15.1 °F 9% 29.83 in 10.0 mi Calm Calm - N/A   Clear
12:53 PM 80.1 °F 19.0 °F 10% 29.79 in 10.0 mi Variable 6.9 mph 20.7 mph N/A   Clear
1:53 PM 84.0 °F 19.0 °F 9% 29.75 in 10.0 mi South 11.5 mph 21.9 mph N/A   Clear
2:53 PM 84.0 °F 16.0 °F 8% 29.75 in 10.0 mi WSW 17.3 mph 23.0 mph N/A   Clear
3:53 PM 84.0 °F 19.9 °F 9% 29.73 in 10.0 mi SW 13.8 mph 27.6 mph N/A   Clear
4:53 PM 81.0 °F 18.0 °F 10% 29.74 in 10.0 mi SW 9.2 mph - N/A   Clear
5:53 PM 80.1 °F 17.1 °F 9% 29.71 in 10.0 mi WSW 13.8 mph - N/A   Clear
6:53 PM 81.0 °F 15.1 °F 8% 29.72 in 10.0 mi WSW 20.7 mph 27.6 mph N/A   Clear
7:53 PM 77.0 °F 19.0 °F 11% 29.71 in 10.0 mi WSW 13.8 mph 23.0 mph N/A   Clear
8:53 PM 66.9 °F 21.9 °F 18% 29.73 in 10.0 mi SW 5.8 mph - N/A   Clear
9:53 PM 66.0 °F 21.9 °F 19% 29.72 in 10.0 mi SSW 3.5 mph - N/A   Clear
10:53 PM 62.1 °F 21.9 °F 21% 29.71 in 10.0 mi Calm Calm - N/A   Clear
11:53 PM 60.1 °F 23.0 °F 24% 29.70 in 10.0 mi Calm Calm - N/A   Clear